| time (UTC) | temp C | wind direction | speed KPH | gust KPH | rain 1hr cm | rain 24hr cm | rain mn cm | humidity % | barometer mb |
| 20260906143007 | 18 | 5 | 6.4 | 20.9 | 0.00 | 0.00 | 0.00 | 79 | 1016.9 |
| 20260906141600 | 18 | 317 | 8.0 | 17.7 | 0.00 | 0.00 | 0.00 | 82 | 1017.0 |
| 20260906140106 | 17 | 341 | 4.8 | 17.7 | 0.00 | 0.00 | 0.00 | 82 | 1016.8 |
| 20260906134557 | 17 | 9 | 1.6 | 12.9 | 0.00 | 0.00 | 0.00 | 84 | 1016.6 |
| 20260906133121 | 17 | 355 | 4.8 | 19.3 | 0.00 | 0.00 | 0.00 | 84 | 1016.6 |
| 20260906131612 | 16 | 350 | 4.8 | 14.5 | 0.00 | 0.00 | 0.00 | 88 | 1016.6 |
| 20260906130058 | 16 | 338 | 4.8 | 16.1 | 0.00 | 0.00 | 0.00 | 90 | 1016.8 |
| 20260906124548 | 16 | 355 | 1.6 | 11.3 | 0.00 | 0.00 | 0.00 | 91 | 1016.6 |
| 20260906123050 | 15 | 360 | 0.0 | 6.4 | 0.00 | 0.00 | 0.00 | 93 | 1016.4 |
| 20260906121548 | 15 | 360 | 1.6 | 6.4 | 0.00 | 0.00 | 0.00 | 93 | 1016.3 |
| 20260906120047 | 15 | 5 | 0.0 | 16.1 | 0.00 | 0.03 | 0.00 | 93 | 1016.3 |
| 20260906114540 | 14 | 331 | 0.0 | 6.4 | 0.00 | 0.03 | 0.00 | 93 | 1016.1 |
| 20260906113039 | 14 | 331 | 0.0 | 1.6 | 0.00 | 0.03 | 0.00 | 93 | 1015.9 |
| 20260906111537 | 14 | 331 | 0.0 | 1.6 | 0.00 | 0.03 | 0.00 | 93 | 1015.9 |
| 20260906110034 | 13 | 331 | 0.0 | 0.0 | 0.00 | 0.03 | 0.00 | 93 | 1015.8 |
| 20260906104531 | 13 | 331 | 0.0 | 0.0 | 0.00 | 0.03 | 0.00 | 93 | 1015.7 |
| 20260906103030 | 13 | 331 | 0.0 | 0.0 | 0.00 | 0.03 | 0.00 | 93 | 1015.5 |
| 20260906101531 | 13 | 331 | 0.0 | 0.0 | 0.00 | 0.03 | 0.00 | 93 | 1015.5 |
| 20260906100029 | 13 | 331 | 0.0 | 0.0 | 0.00 | 0.03 | 0.00 | 93 | 1015.5 |
| 20260906094528 | 13 | 331 | 0.0 | 0.0 | 0.00 | 0.03 | 0.00 | 93 | 1015.5 |
| 20260906093031 | 13 | 331 | 0.0 | 0.0 | 0.00 | 0.03 | 0.00 | 93 | 1015.3 |
| 20260906091522 | 12 | 331 | 0.0 | 0.0 | 0.00 | 0.03 | 0.00 | 93 | 1015.1 |
| 20260906090021 | 13 | 331 | 0.0 | 0.0 | 0.00 | 0.03 | 0.03 | 93 | 1015.0 |
| 20260906084521 | 13 | 331 | 0.0 | 0.0 | 0.00 | 0.03 | 0.03 | 93 | 1014.9 |
| 20260906083023 | 13 | 331 | 0.0 | 0.0 | 0.00 | 0.03 | 0.03 | 93 | 1014.7 |
| 20260906081525 | 12 | 331 | 0.0 | 0.0 | 0.00 | 0.03 | 0.03 | 93 | 1014.5 |
| 20260906080018 | 12 | 331 | 0.0 | 0.0 | 0.00 | 0.03 | 0.03 | 93 | 1014.4 |
| 20260906074518 | 12 | 331 | 0.0 | 0.0 | 0.00 | 0.03 | 0.03 | 93 | 1014.4 |
| 20260906073018 | 12 | 331 | 0.0 | 0.0 | 0.00 | 0.03 | 0.03 | 92 | 1014.4 |
| 20260906071520 | 12 | 331 | 0.0 | 0.0 | 0.00 | 0.03 | 0.03 | 92 | 1014.3 |
| 20260906070018 | 12 | 331 | 0.0 | 0.0 | 0.00 | 0.03 | 0.03 | 92 | 1014.3 |
| 20260906064520 | 12 | 331 | 0.0 | 0.0 | 0.00 | 0.03 | 0.03 | 92 | 1014.3 |
| 20260906063015 | 13 | 331 | 0.0 | 0.0 | 0.00 | 0.03 | 0.03 | 92 | 1014.3 |
| 20260906061513 | 13 | 331 | 0.0 | 0.0 | 0.00 | 0.03 | 0.03 | 92 | 1014.5 |
| 20260906060021 | 13 | 331 | 0.0 | 0.0 | 0.00 | 0.03 | 0.03 | 92 | 1014.5 |
| 20260906054512 | 13 | 331 | 0.0 | 0.0 | 0.00 | 0.03 | 0.03 | 91 | 1014.5 |
| 20260906053019 | 13 | 331 | 0.0 | 0.0 | 0.00 | 0.03 | 0.03 | 91 | 1014.4 |
| 20260906051510 | 13 | 331 | 0.0 | 0.0 | 0.00 | 0.03 | 0.03 | 91 | 1014.4 |
| 20260906050010 | 13 | 331 | 0.0 | 0.0 | 0.00 | 0.03 | 0.03 | 91 | 1014.3 |
| 20260906044510 | 13 | 331 | 0.0 | 0.0 | 0.00 | 0.03 | 0.03 | 91 | 1014.4 |
| 20260906043010 | 14 | 331 | 0.0 | 0.0 | 0.00 | 0.03 | 0.03 | 90 | 1014.5 |
| 20260906041512 | 14 | 331 | 0.0 | 0.0 | 0.00 | 0.03 | 0.03 | 90 | 1014.4 |
| 20260906040007 | 15 | 331 | 0.0 | 0.0 | 0.00 | 0.03 | 0.03 | 90 | 1014.3 |
| 20260906034506 | 15 | 331 | 0.0 | 0.0 | 0.00 | 0.03 | 0.03 | 90 | 1014.3 |
| 20260906033007 | 15 | 331 | 0.0 | 0.0 | 0.00 | 0.03 | 0.03 | 89 | 1014.3 |
| 20260906031504 | 15 | 331 | 0.0 | 0.0 | 0.00 | 0.03 | 0.03 | 89 | 1014.1 |
| 20260906030004 | 15 | 331 | 0.0 | 0.0 | 0.00 | 0.03 | 0.03 | 88 | 1014.0 |
| 20260906024502 | 15 | 331 | 0.0 | 0.0 | 0.00 | 0.03 | 0.03 | 87 | 1013.9 |
| 20260906023002 | 16 | 331 | 0.0 | 0.0 | 0.00 | 0.03 | 0.03 | 84 | 1014.0 |
| 20260906021510 | 16 | 331 | 0.0 | 0.0 | 0.00 | 0.03 | 0.03 | 82 | 1013.9 |
| 20260906020003 | 16 | 331 | 0.0 | 0.0 | 0.00 | 0.03 | 0.03 | 81 | 1013.9 |
| 20260906014503 | 17 | 335 | 0.0 | 0.0 | 0.00 | 0.03 | 0.03 | 80 | 1013.8 |
| 20260906013100 | 17 | 335 | 0.0 | 0.0 | 0.00 | 0.03 | 0.03 | 79 | 1013.6 |
| 20260906011612 | 17 | 335 | 0.0 | 0.0 | 0.00 | 0.03 | 0.03 | 79 | 1013.6 |
| 20260906010057 | 17 | 335 | 0.0 | 0.0 | 0.00 | 0.03 | 0.03 | 77 | 1013.4 |
| 20260906004556 | 18 | 335 | 0.0 | 3.2 | 0.00 | 0.03 | 0.03 | 77 | 1013.4 |
| 20260906003054 | 18 | 333 | 3.2 | 8.0 | 0.00 | 0.03 | 0.03 | 76 | 1013.1 |
| 20260906001600 | 18 | 9 | 3.2 | 8.0 | 0.00 | 0.03 | 0.03 | 74 | 1013.2 |
| 20260906000054 | 19 | 9 | 1.6 | 8.0 | 0.00 | 0.03 | 0.03 | 72 | 1012.8 |
| 20260905234553 | 19 | 9 | 0.0 | 4.8 | 0.00 | 0.03 | 0.03 | 70 | 1012.7 |
| 20260905233111 | 20 | 33 | 0.0 | 4.8 | 0.00 | 0.03 | 0.03 | 68 | 1012.7 |
| 20260905231557 | 20 | 349 | 0.0 | 9.7 | 0.00 | 0.03 | 0.03 | 67 | 1012.7 |
| 20260905230053 | 21 | 313 | 3.2 | 8.0 | 0.00 | 0.03 | 0.03 | 66 | 1012.6 |
| 20260905224610 | 21 | 355 | 3.2 | 12.9 | 0.00 | 0.03 | 0.03 | 64 | 1012.6 |
| 20260905223055 | 21 | 355 | 1.6 | 9.7 | 0.00 | 0.03 | 0.03 | 62 | 1012.6 |
| 20260905221553 | 22 | 350 | 0.0 | 11.3 | 0.00 | 0.03 | 0.03 | 62 | 1012.3 |
| 20260905220051 | 22 | 345 | 0.0 | 9.7 | 0.00 | 0.03 | 0.03 | 63 | 1012.3 |
| 20260905214554 | 22 | 360 | 4.8 | 14.5 | 0.00 | 0.03 | 0.03 | 62 | 1012.1 |
| 20260905213051 | 22 | 314 | 3.2 | 9.7 | 0.00 | 0.03 | 0.03 | 60 | 1012.1 |
| 20260905211551 | 23 | 346 | 4.8 | 12.9 | 0.00 | 0.03 | 0.03 | 54 | 1011.9 |
| 20260905210053 | 23 | 11 | 1.6 | 11.3 | 0.00 | 0.03 | 0.03 | 59 | 1012.0 |
| 20260905204552 | 23 | 21 | 0.0 | 11.3 | 0.00 | 0.03 | 0.03 | 59 | 1012.0 |
| 20260905203053 | 22 | 333 | 8.0 | 16.1 | 0.00 | 0.03 | 0.03 | 58 | 1012.0 |
| 20260905201558 | 22 | 348 | 6.4 | 14.5 | 0.00 | 0.03 | 0.03 | 58 | 1012.0 |
| 20260905200051 | 22 | 350 | 4.8 | 12.9 | 0.00 | 0.03 | 0.03 | 59 | 1011.9 |
| 20260905194549 | 22 | 345 | 6.4 | 14.5 | 0.00 | 0.03 | 0.03 | 56 | 1012.0 |
| 20260905193049 | 23 | 289 | 8.0 | 14.5 | 0.00 | 0.03 | 0.03 | 55 | 1011.9 |
| 20260905191552 | 24 | 350 | 1.6 | 8.0 | 0.00 | 0.03 | 0.03 | 56 | 1012.0 |
| 20260905190100 | 23 | 350 | 0.0 | 14.5 | 0.00 | 0.03 | 0.03 | 54 | 1012.0 |
| 20260905184602 | 23 | 290 | 3.2 | 8.0 | 0.00 | 0.03 | 0.03 | 55 | 1012.2 |
| 20260905183047 | 23 | 355 | 1.6 | 12.9 | 0.00 | 0.03 | 0.03 | 56 | 1012.3 |
| 20260905181545 | 23 | 306 | 0.0 | 12.9 | 0.00 | 0.03 | 0.03 | 57 | 1012.2 |
| 20260905180044 | 22 | 355 | 6.4 | 12.9 | 0.00 | 0.03 | 0.03 | 61 | 1012.4 |
| 20260905174553 | 22 | 343 | 4.8 | 9.7 | 0.00 | 0.03 | 0.03 | 56 | 1012.4 |
| 20260905173043 | 23 | 11 | 3.2 | 12.9 | 0.00 | 0.03 | 0.03 | 60 | 1012.5 |
| 20260905171540 | 21 | 323 | 6.4 | 14.5 | 0.00 | 0.03 | 0.03 | 63 | 1012.6 |
| 20260905170041 | 21 | 306 | 6.4 | 11.3 | 0.00 | 0.03 | 0.03 | 65 | 1012.7 |
| 20260905164540 | 21 | 293 | 3.2 | 12.9 | 0.00 | 0.03 | 0.03 | 62 | 1012.8 |
| 20260905163039 | 20 | 302 | 6.4 | 12.9 | 0.00 | 0.03 | 0.03 | 67 | 1013.0 |
| 20260905161539 | 21 | 348 | 8.0 | 12.9 | 0.00 | 0.03 | 0.03 | 65 | 1013.0 |
| 20260905160039 | 21 | 340 | 3.2 | 12.9 | 0.00 | 0.03 | 0.03 | 65 | 1013.0 |
| 20260905154539 | 21 | 315 | 4.8 | 14.5 | 0.00 | 0.03 | 0.03 | 67 | 1013.0 |
| 20260905153038 | 21 | 360 | 4.8 | 9.7 | 0.00 | 0.03 | 0.03 | 65 | 1012.8 |
| 20260905151536 | 21 | 340 | 6.4 | 16.1 | 0.00 | 0.03 | 0.03 | 68 | 1012.9 |
| 20260905150036 | 21 | 338 | 11.3 | 19.3 | 0.00 | 0.03 | 0.03 | 66 | 1012.9 |
| 20260905144540 | 21 | 326 | 3.2 | 12.9 | 0.00 | 0.03 | 0.03 | 67 | 1013.0 |